Время (UTC), дата Ветер
(°,м/с) 
Видим.   Явления Облачность Т
(°С)
Тd
(°С)
f(%) Тe
(°С)
Pmin
(гПа)
dP
(гПа)
Po
(мм)
O2
(г/м3)
Тmin Tmax R s Состояние
почвы
00 01.09.15 280 (З) 10 км    4/0 верхняя 
[Ci fib]
+8.2 +5.8 85 +9  1011.4  0.2  748  292           
03 01.09.15 300 (СЗ) 10 км    9/0 верхняя 
[Cs]
+8 +5.6 85 +8  1011.7  0.3  748  292  +7.5        влажная 
06 01.09.15 280 (З) 20000 м    6/0 верхняя 
[Cs]
+12.3 +7 70 +13  1011.6  748  287           
09 01.09.15 320 (СЗ) 10 км    9/8 1000 м верхняя 
[Cu Sc|Ci fib]
+14.7 +3.4 47 +15  1010.9  -0.5  748  285           
12 01.09.15 280 (З) 20000 м  в посл. час ливневой дождь  9/5 1000 м кучево-дожд., средняя, верхняя 
[Cb cap|Ac lent|Ci fib]
+14.6 +5.8 55 +15  1011  -0.1  748  285           
15 01.09.15 300 (СЗ) 20000 м  {ливн. осадки}  6/5 600 м средняя 
[Cu med, cong|Ac trans]
+14.2 +6.3 59 +15  1010.6  -0.4  747  285    +16.1       
18 01.09.15 290 (З) 10 км  {ливн. осадки}  ясно 
+11.6 +3.8 59 +12  1010.9  0.2  747  288           
21 01.09.15 260 (З) 10 км    1/0 средняя 
[Ac lent]
+9.2 +3.3 67 +10  1011.1  0.1  748  291           
00 02.09.15 290 (З) 10 км    9/9 900 м 
[Sc]
+9.5 +4.4 70 +10  1011.1  748  290           
03 02.09.15 220 (ЮЗ) 10 км    9/9 900 м 
[Sc]
+9.9 +5.7 75 +11  1010.9  0.1  747  290  +8.7        влажная 
06 02.09.15 280 (З) 20000 м    8/0 средняя 
[Sc|Ac As]
+13.5 +5.7 59 +14  1010.2  -0.5  747  286           
09 02.09.15 290 (З) 20000 м    6/4 1000 м средняя 
[Cu med, cong|Ac cast]
+16.4 +5.1 47 +16  1009.5  -0.5  747  283           
12 02.09.15 280 (З) 20000 м    6/0 средняя 
[Cu Sc|Ac lent]
+17.2 +4.5 43 +17  1009.1  -0.3  746  282           
15 02.09.15 360 (С) 2000 м  дождь  10/10 210 м 
[Frnb|Ns]
+11.1 +9 87 +12  1010  0.7  747  288    +17.7     
18 02.09.15 240 (ЮЗ) 10 км  {дождь}  8/0 средняя 
[Ac cast]
+11.2 +9.7 90 +13  1009.5  -0.5  746  287           
21 02.09.15 260 (З) 10 км    10/6 600 м средняя 
[Sc diur, vesp|Ac und]
+11.7 +9.3 85 +13  1008.8  -0.6  746  287           
00 03.09.15 270 (З) 2000 м  дождь  10/10 210 м 
[Frnb]
+11.7 +10.2 90 +14  1009  0.1  746  286           
03 03.09.15 320 (СЗ) 4000 м  в посл. час дождь  10/10 240 м 
[Frnb]
+11.1 +9.8 92 +13  1010.1  1.1  747  287  +10.9      мокрая 
06 03.09.15 300 (СЗ) 10 км  {дождь}  8/8 600 м 
[Cu Sc]
+12.8 +10 83 +14  1011.6  1.6  748  286           
09 03.09.15 340 (С) 10 км    9/8 600 м средняя 
[Cu Sc|Ac As]
+14.1 +9.9 76 +16  1013.1  1.5  749  285           
12 03.09.15 300 (СЗ) 20000 м    8/3 1000 м средняя 
[Sc diur, vesp|Ac trans]
+16.1 +7.3 56 +17  1014.1  1.1  750  284           
15 03.09.15 350 (С) 20000 м    5/0 верхняя 
[Ci fib]
+15.5 +3.4 44 +17  1015.4  1.2  751  286    +17.8       
18 03.09.15 тихо ()   10 км    4/0 верхняя 
[Ci]
+9.7 +6.8 82 +10  1016.7  752  291           
21 03.09.15 060 (СВ) 10 км    3/0 верхняя 
[Ci sp]
+10 +5.8 75 +11  1017.6  0.9  752  291           
00 04.09.15 тихо ()   10 км    ясно 
+7 +5.2 88 +7  1018.5  0.8  753  295           
03 04.09.15 120 (ЮВ) 10 км    6/0 верхняя 
[Ci sp]
+8.8 +6.7 87 +10  1019  0.6  753  293  +6.3        мокрая 
06 04.09.15 170 (Ю) 20000 м    8/0 средняя, верхняя 
[Ac As|Ci fib]
+14.5 +8.3 66 +16  1019.1  0.4  754  287           
09 04.09.15 160 (Ю) 20000 м    9/3 1000 м средняя 
[Cu med, cong|Ac lent]
+17.3 +7.4 52 +19  1018.8  -0.2  754  284           
12 04.09.15 150 (ЮВ) 20000 м    9/0 средняя 
[Ac As]
+17.2 +7.4 53 +19  1018.4  -0.4  753  284           
15 04.09.15 100 (В) 20000 м    8/3 600 м средняя 
[Sc|Ac lent]
+15.2 +8.2 63 +17  1018.1  -0.4  753  286    +17.8       
18 04.09.15 090 (В) 10 км    8/0 средняя 
[Ac lent]
+13.9 +7.9 67 +14  1017.8  -0.4  753  287           
21 04.09.15 090 (В) 10 км  слаб. ливневой дождь  10/10 330 м кучево-дожд. 
[Cb cap]
+13.2 +10.2 82 +15  1017.5  -0.3  752  287           
00 05.09.15 100 (В) 10 км  {ливн. осадки}  10/10 1500 м кучево-дожд. 
[Cb cap]
+12.3 +10.2 87 +15  1017.5  0.1  752  288           
03 05.09.15 100 (В) 10 км  слаб. дождь  10/10 1320 м 
[Ns]
+12 +10.4 90 +14  1017.2  -0.3  752  288  +12      мокрая 
06 05.09.15 120 (ЮВ) 10 км  {дождь}  10/10 1500 м 
[Sc]
+13.4 +11.1 86 +17  1016.2  -0.9  752  287  +12         
09 05.09.15 140 (ЮВ) 10 км    9/3 1000 м средняя 
[Sc|Ac As]
+17.3 +10.6 65 +20  1014.6  -1.5  750  282           
12 05.09.15 140 (ЮВ) 10 км  в посл. час дождь  10/1 600 м средняя 
[St|Ac As]
+17 +11.3 69 +21  1013.4  -1.2  750  282           
15 05.09.15 120 (ЮВ) 10 км  {дождь}  9/0 средняя 
[Ac As]
+16.3 +11.2 72 +20  1012  -1.4  749  283    +17.3  0.3     
18 05.09.15 100 (В) 10 км  {дождь}  9/0 средняя 
[Ac lent]
+14.8 +11.3 80 +19  1011.4  -0.7  748  284           
21 05.09.15 110 (В) 10 км    9/0 средняя 
[Ac As]
+14.1 +11.5 84 +18  1011  -0.4  748  284           
00 06.09.15 140 (ЮВ) 10 км    10/0 средняя 
[Ac lent]
+14.5 +11.7 83 +19  1010.3  -0.6  747  284           
03 06.09.15 130 (ЮВ) 10 км    10/0 средняя 
[Ac As]
+14.8 +12.8 88 +21  1009.9  -0.4  747  283  +13.8        влажная 
06 06.09.15 270 (З) 10 км    10/0 средняя 
[As op]
+17.2 +14.5 84 +27  1010.8  748  280           
09 06.09.15 260 (З) 10 км  дымка  10/0 средняя 
[Ac As]
+20.4 +16 76 +31  1011.1  0.5  748  277           
12 06.09.15 280 (З) 10 км  дымка  10/9 750 м средняя 
[St|As op]
+19.7 +15.3 76 +30  1012.6  1.4  749  278           
15 06.09.15 250 (З) 10 км  в посл. час дождь  10/0 средняя 
[As op]
+18 +14.4 79 +27  1013.2  0.5  749  280    +20.6       
18 06.09.15 тихо ()   10 км  {дождь}  10/0 средняя 
[Ac As]
+16.5 +14.5 88 +24  1013.6  0.3  750  282           
21 06.09.15 140 (ЮВ) 10 км    10/0 средняя 
[Ac As]
+15.9 +14.4 91 +25  1012.6  -1  749  282           
00 07.09.15 100 (В) 4000 м  дымка{дождь}  10/10 1200 м 
[Ac cast]
+15.7 +14.5 93 +24  1010.7  -1.9  748  282           
03 07.09.15 100 (В) 10 км    10/0 верхняя 
[Ci]
+15.4 +13.5 88 +21  1006.9  -3.7  745  281  +15.3        влажная 
06 07.09.15 170 (Ю) 20000 м    8/0 средняя 
[Ac trans]
+21.2 +14.9 67 +30  1004.2  -2.4  743  275           
09 07.09.15 170 (Ю) 20000 м    6/0 верхняя 
[Cs]
+27.4 +14.8 46 +36  1003.3  -0.5  743  269           
12 07.09.15 250 (З) 4-11{11}  10 км  гроза без осадков  10/8 1200 м кучево-дожд., средняя 
[Cb cap|Ac As]
+26.8 +13.8 45 +34  1003.2  -0.2  742  270           
15 07.09.15 190 (Ю) 2{11}  1000 м  гроза, ливневой дождь  10/10 800 м кучево-дожд. 
[Cb cap]
+19 +17.2 89 +33  1004.8  1.3  743  276    +29.9     
18 07.09.15 180 (Ю) 10 км  гроза, ливневой дождь  10/10 180 м кучево-дожд. 
[Cb cap]
+18.8 +17.4 92 +33  1004.9  0.1  743  276           
21 07.09.15 260 (З) 10 км  {гроза}  10/0 средняя 
[Ac cast]
+18.1 +15.9 87 +29  1006  744  278           
00 08.09.15 280 (З) 10 км  {гроза}  10/0 средняя 
[Ac As]
+16.2 +13.4 83 +24  1007.9  1.7  745  281           
03 08.09.15 280 (З) 10 км    10/0 средняя 
[Ac As]
+14.4 +11.9 85 +19  1008.7  0.7  746  283  +14.4      мокрая 
06 08.09.15 250 (З) 20000 м    1/1 1000 м 
[Cu hum]
+16.3 +11.8 75 +21  1009.9  1.3  747  282  +14.1         
09 08.09.15 240 (ЮЗ) 20000 м    5/5 1000 м 
[Cu med, cong]
+18.8 +8.9 53 +19  1010.3  0.5  747  280           
12 08.09.15 250 (З) 5{11}  20000 м    5/5 1000 м 
[Cu med, cong]
+20.3 +7.2 43 +20  1011.3  1.1  748  279           
15 08.09.15 240 (ЮЗ) 20000 м    5/5 600 м 
[Sc]
+18.3 +7 48 +19  1011.9  0.5  749  282    +20.3       
18 08.09.15 240 (ЮЗ) 10 км    ясно 
+15.3 +7.9 61 +16  1013.5  1.4  749  285           
21 08.09.15 200 (Ю) 10 км    6/0 средняя 
[Ac cast]
+13.7 +7.6 67 +15  1014  0.4  750  286           
00 09.09.15 140 (ЮВ) 10 км    6/0 средняя 
[Ac cast]
+11 +7.7 80 +12  1014.3  0.1  750  289           
03 09.09.15 120 (ЮВ) 20000 м    ясно 
+9.8 +7.7 87 +11  1014.5  0.1  750  290  +9.8        влажная 
06 09.09.15 240 (ЮЗ) 20000 м    ясно 
+15.5 +8.9 65 +16  1015.3  1.1  751  285           
09 09.09.15 240 (ЮЗ) 20000 м    6/6 600 м 
[Cu med, cong]
+18.3 +7.1 48 +19  1015.3  0.1  751  282           
12 09.09.15 240 (ЮЗ) 20000 м    8/8 1000 м 
[Cu Sc]
+18.2 +7.8 51 +19  1016.6  1.3  752  283           
15 09.09.15 250 (З) 20000 м    8/5 1000 м средняя 
[Sc|Ac lent]
+16.8 +8 56 +18  1017.8  1.1  753  284    +19.1       
18 09.09.15 290 (З) 10 км    9/0 средняя 
[Ac lent]
+15 +9.6 70 +17  1019.4  1.5  754  286           
21 09.09.15 тихо ()   10 км    9/0 средняя 
[Ac lent]
+12.8 +9 78 +13  1019.8  0.3  754  289           
00 10.09.15 тихо ()   10 км    ясно 
+10.7 +8.7 87 +11  1020.5  0.5  755  291           
03 10.09.15 240 (ЮЗ) 10 км    3/0 средняя 
[Ac lent]
+11.2 +9.3 88 +12  1021  0.5  755  291  +10.3        влажная 
06 10.09.15 270 (З) 20000 м    9/0 средняя 
[Ac lent]
+14.4 +10 75 +16  1021.1  0.3  755  287           
09 10.09.15 250 (З) 20000 м    8/6 1000 м средняя, верхняя 
[Cu med, cong|Ac cast|Ci fib]
+16.4 +9 62 +17  1020.2  -0.7  755  285           
12 10.09.15 290 (З) 10 км  {ливн. осадки}  8/6 600 м кучево-дожд., средняя, верхняя 
[Cb cap|Ac inh|Ci ing]
+15.9 +9 64 +17  1020  -0.3  754  286           
15 10.09.15 030 (СВ) 10 км  слаб. ливневой дождь{гроза}  8/5 1000 м кучево-дожд., верхняя 
[Cb cap|Ci ing]
+12.3 +9.3 82 +14  1020.4  0.2  755  289    +17.3     
18 10.09.15 330 (СЗ) 10 км  {гроза, ливн. осадки}  8/8 600 м 
[Sc]
+11.1 +8.4 83 +11  1021.7  1.2  755  291           
21 10.09.15 330 (СЗ) 10 км    3/0 средняя 
[Ac trans]
+9 +7 87 +10  1022.5  0.6  756  294           
00 11.09.15 300 (СЗ) 10 км    9/9 1230 м 
[Sc]
+8.9 +5.8 81 +10  1023.4  0.9  757  294           
03 11.09.15 330 (СЗ) 20000 м    10/10 1000 м 
[Sc]
+9.1 +5.9 80 +10  1024  0.6  757  294  +8.4        мокрая 
06 11.09.15 330 (СЗ) 20000 м    10/10 570 м 
[St]
+10.7 +6.9 77 +12  1024.7  0.8  758  293           
09 11.09.15 320 (СЗ) 10 км  слаб. ливневой дождь  10/8 800 м кучево-дожд., средняя 
[Cb cap|Ac As]
+11.9 +7.5 74 +12  1025.5  0.8  758  292           
12 11.09.15 340 (С) 10 км  {ливн. осадки}  9/8 930 м средняя 
[Sc diur, vesp|Ac As]
+12.9 +8 72 +13  1026.3  0.9  759  291           
15 11.09.15 350 (С) 10 км    9/8 1500 м средняя 
[Sc diur, vesp|Ac lent]
+12.7 +6.3 65 +14  1027.2  0.8  760  291    +14.5       
18 11.09.15 330 (СЗ) 10 км    8/4 1500 м средняя 
[Sc|Ac lent]
+10.8 +7.2 78 +12  1028.3  1.1  760  294           
21 11.09.15 340 (С) 10 км    10/10 1500 м 
[Sc]
+10.1 +6.6 79 +10  1029.5  1.1  761  295           
00 12.09.15 330 (СЗ) 10 км    ясно 
+7.4 +4.4 81 +8  1030.5  0.8  762  298           
03 12.09.15 010 (С) 20000 м    ясно 
+6.3 +4.1 86 +7  1031.8  1.2  763  300  +6.2         
06 12.09.15 360 (С) 20000 м    3/0 верхняя 
[Ci fib]
+10.9 +4.6 65 +11  1032.9  1.4  764  295           
09 12.09.15 340 (С) 20000 м    6/6 1000 м 
[Cu Sc]
+11.8 +3.5 57 +12  1033.3  0.4  764  295           
12 12.09.15 350 (С) 20000 м    10/10 600 м 
[Sc]
+11.6 +4.7 63 +11  1032.9  -0.3  764  295           
15 12.09.15 320 (СЗ) 10 км    10/10 870 м 
[Sc]
+11.3 +5.5 67 +12  1032.5  -0.5  763  295    +12.9       
18 12.09.15 290 (З) 10 км    10/10 1000 м 
[Sc]
+11 +6.4 73 +11  1032.6  763  295           
21 12.09.15 310 (СЗ) 10 км    10/10 1020 м 
[Sc]
+11 +6.8 75 +12  1032.5  763  295           
00 13.09.15 290 (З) 10 км    3/0 средняя 
[Ac lent]
+9.2 +6.5 83 +9  1032.8  0.2  764  297           
03 13.09.15 290 (З) 20000 м    ясно 
+8.3 +6 85 +8  1032.7  -0.2  763  298  +8.3        влажная 
06 13.09.15 310 (СЗ) 20000 м    8/0 верхняя 
[Ci fib]
+12.8 +7.8 72 +13  1032.3  0.1  763  293           
09 13.09.15 310 (СЗ) 20000 м    10/1 1000 м верхняя 
[Cu hum|Cs]
+17.9 +9.5 58 +19  1031.6  -0.4  763  287           
12 13.09.15 310 (СЗ) 20000 м    10/0 верхняя 
[Cs]
+19.7 +8.6 49 +21  1030.8  -0.8  762  285           
15 13.09.15 320 (СЗ) 20000 м    8/0 верхняя 
[Ci fib]
+17.8 +8.8 56 +19  1030.2  -0.6  762  287    +19.9       
18 13.09.15 350 (С) 10 км    ясно 
+14.6 +9.6 72 +16  1030.7  0.3  762  290           
21 13.09.15 310 (СЗ) 10 км    ясно 
+12.1 +9.6 85 +13  1031.5  0.6  763  293           
00 14.09.15 300 (СЗ) 10 км    ясно 
+11.2 +9.4 89 +12  1031.7  0.2  763  294           
03 14.09.15 350 (С) 10 км    6/0 верхняя 
[Ci sp]
+10.4 +8.9 90 +12  1031.6  -0.1  763  295  +10.2        влажная 
06 14.09.15 290 (З) 20000 м    6/0 верхняя 
[Ci fib]
+14 +10.2 78 +16  1031.7  0.3  763  291           
09 14.09.15 310 (СЗ) 20000 м    8/0 верхняя 
[Cs]
+19.1 +11.1 60 +23  1030.6  -0.9  762  285           
12 14.09.15 090 (В) 20000 м    8/0 верхняя 
[Cs]
+22 +7.6 39 +22  1029.3  -1.1  761  283           
15 14.09.15 060 (СВ) 20000 м    8/0 верхняя 
[Ci fib]
+18.5 +9.1 54 +20  1028.4  -1.1  761  285    +22.2       
18 14.09.15 тихо ()   10 км    3/0 верхняя 
[Ci fib]
+15 +10.1 73 +16  1028.1  -0.5  760  289           
21 14.09.15 тихо ()   10 км    ясно 
+11.7 +9.7 87 +12  1027.8  -0.4  760  292           
00 15.09.15 тихо ()   4000 м  дымка  ясно 
+10.4 +9 91 +10  1027  -0.9  759  293           
03 15.09.15 тихо ()   20000 м    10/0 верхняя 
[Cs]
+9.5 +8.4 93 +10  1026.5  -0.5  759  294  +9.4        затоплена
водой 
06 15.09.15 тихо ()   20000 м    8/0 верхняя 
[Cs]
+16.5 +11.1 70 +19  1025.6  -0.5  759  286           
09 15.09.15 020 (С) 20000 м    6/1 1000 м верхняя 
[Cu hum|Ci sp]
+20.7 +9.5 49 +21  1024.1  -1.3  758  282           
12 15.09.15 230 (ЮЗ) 20000 м    8/3 1500 м верхняя 
[Cu hum|Ci fib]
+21.8 +6.9 38 +22  1022.9  -1.2  757  281           
15 15.09.15 тихо ()   20000 м    6/0 верхняя 
[Ci fib]
+18 +8.4 53 +18  1022.1  -0.9  756  284    +22.2       
18 15.09.15 тихо ()   10 км    ясно 
+13.1 +8 71 +13  1021.9  -0.5  756  289           
21 15.09.15 тихо ()   10 км    ясно 
+11.3 +8.4 82 +11  1021.1  -0.8  755  291           
00 16.09.15 тихо ()   10 км    3/0 верхняя 
[Ci fib]
+10.4 +8.7 89 +10  1020.9  -0.3  755  291           
03 16.09.15 320 (СЗ) 20000 м    4/1 1500 м верхняя 
[Cu hum|Ci fib]
+10.5 +9.2 92 +12  1020.7  -0.2  755  291  +9.7        влажная 
06 16.09.15 290 (З) 20000 м    8/0 верхняя 
[Ci sp]
+15.1 +10 72 +17  1020.6  0.2  755  286           
09 16.09.15 320 (СЗ) 20000 м    6/0 верхняя 
[Ci sp]
+20.1 +9 49 +20  1020  -0.4  755  282           
12 16.09.15 300 (СЗ) 20000 м    4/4 1000 м 
[Cu med, cong]
+21.2 +7.8 42 +21  1019.7  -0.2  754  281           
15 16.09.15 тихо ()   20000 м    ясно 
+17.1 +9.1 59 +17  1020.2  0.3  755  285    +21.7       
18 16.09.15 тихо ()   10 км    ясно 
+13.2 +9.4 78 +13  1021.1  0.7  755  289           
21 16.09.15 тихо ()   10 км    ясно 
+11.6 +8.9 84 +12  1021.5  0.3  755  290           
00 17.09.15 360 (С) н/о    н/о 
+10.8 +8.5 86 +12  1022.1  0.6  756  291           
03 17.09.15 340 (С) 20000 м    ясно 
+10.5 +8.6 88 +12  1023  0.8  756  292  +10        сухая 
06 17.09.15 300 (СЗ) 20000 м    1/0 верхняя 
[Ci fib]
+16.1 +10.3 68 +18  1023.3  0.6  757  286           
09 17.09.15 300 (СЗ) 20000 м    5/4 1500 м верхняя 
[Cu med, cong|Ci fib]
+20 +8.5 47 +20  1022.8  -0.3  757  283           
12 17.09.15 280 (З) 20000 м    8/1 1500 м средняя, верхняя 
[Cu med, cong|Ac lent|Ci sp]
+19.7 +8.4 48 +21  1022.4  -0.3  756  283           
15 17.09.15 тихо ()   20000 м    4/0 средняя, верхняя 
[Ac lent|Ci fib]
+16.4 +9.9 65 +17  1022.1  -0.5  756  286    +20.9       
18 17.09.15 тихо ()   10 км    10/0 средняя 
[Ac cast]
+14.3 +10.1 76 +15  1022.5  0.3  756  288           
21 17.09.15 тихо ()   10 км    10/0 средняя 
[Ac und]
+13.1 +10.5 84 +15  1022.2  -0.4  756  289           
00 18.09.15 тихо ()   10 км    10/0 средняя 
[Ac und]
+12.7 +9.7 82 +13  1021.7  -0.4  756  289           
03 18.09.15 240 (ЮЗ) 10 км    10/0 средняя 
[Ac As]
+14.1 +8.1 67 +15  1021  -0.7  755  288  +12.3        сухая 
06 18.09.15 260 (З) 20000 м    10/0 средняя 
[Ac As]
+15.5 +8.3 62 +17  1020.4  -0.5  755  286           
09 18.09.15 250 (З) 20000 м    10/3 1000 м средняя, верхняя 
[Sc|Ac trans|Ci fib]
+19.6 +9.8 53 +22  1019.6  -0.6  754  282           
12 18.09.15 240 (ЮЗ) 20000 м    10/0 средняя, верхняя 
[Ac As|Ci fib]
+21.3 +10.6 50 +23  1018.2  -1.3  753  280           
15 18.09.15 250 (З) 10 км    10/0 средняя, верхняя 
[Ac cast|Ci sp]
+19.3 +10.4 56 +22  1017.3  -1  752  281    +21.5       
18 18.09.15 270 (З) 10 км    6/0 верхняя 
[Ci]
+17.1 +10.1 63 +20  1016.9  -0.4  752  283           
21 18.09.15 260 (З) 10 км    4/0 средняя 
[Ac lent]
+16.5 +10.1 66 +19  1016.1  -0.8  752  284           
00 19.09.15 230 (ЮЗ) н/о    н/о 
+16.8 +10 64 +19  1014.9  -1.2  751  283           
03 19.09.15 240 (ЮЗ) 10 км    10/0 средняя 
[Ac und]
+16.8 +9.9 64 +19  1014.1  -0.8  750  283  +15.9        сухая 
06 19.09.15 260 (З) 20000 м    10/0 средняя, верхняя 
[Ac cast|Ci fib]
+18.4 +9.7 57 +20  1013.1  -0.9  749  281           
09 19.09.15 270 (З) 20000 м    5/0 верхняя 
[Ci fib]
+21.7 +10.6 49 +24  1012.4  -0.6  749  278           
12 19.09.15 280 (З) 20000 м    3/0 верхняя 
[Cs]
+24.4 +13.9 52 +31  1012  -0.2  749  274           
15 19.09.15 280 (З) 20000 м    ясно 
+22.2 +14.7 62 +30  1012.4  0.3  749  276    +24.4       
18 19.09.15 260 (З) 10 км    3/0 верхняя 
[Ci fib]
+19.2 +14.6 75 +29  1012.8  0.2  749  279           
21 19.09.15 290 (З) 10 км    9/0 средняя 
[Ac trans]
+18.1 +14.1 77 +26  1013.4  0.6  750  280           
00 20.09.15 290 (З) 10 км    9/0 средняя 
[Ac trans]
+17.4 +12.9 75 +23  1013.5  750  281           
03 20.09.15 290 (З) 20000 м    6/1 1000 м верхняя 
[Sc|Ci fib]
+15.5 +11.8 79 +21  1014.6  750  284  +15.5        сухая 
06 20.09.15 290 (З) 20000 м    6/0 верхняя 
[Ci fib]
+17.4 +11.3 67 +21  1015.7  1.2  751  282  +15.4         
09 20.09.15 300 (СЗ) 20000 м    3/3 1000 м верхняя 
[Cu hum|Ci fib]
+19.5 +7.2 45 +20  1016.6  752  282           
12 20.09.15 310 (СЗ) 20000 м    1/1 1000 м 
[Cu hum]
+20.4 +6.7 41 +20  1017.2  0.6  752  281           
15 20.09.15 300 (СЗ) 20000 м    5/0 верхняя 
[Ci fib]
+17.8 +6.1 46 +19  1018.9  1.5  754  284    +20.7       
18 20.09.15 тихо ()   10 км    ясно 
+13 +8.2 73 +13  1020.1  754  289           
21 20.09.15 290 (З) 10 км    ясно 
+13.5 +8.7 73 +15  1020.9  0.8  755  288           
00 21.09.15 270 (З) 10 км    ясно 
+11.8 +8.4 80 +13  1021.7  0.7  755  290           
03 21.09.15 тихо ()   20000 м    8/0 средняя, верхняя 
[Ac cast|Ci fib]
+9.7 +7.9 89 +10  1022.4  0.5  756  293  +9.7        сухая 
06 21.09.15 140 (ЮВ) 20000 м    8/0 средняя 
[Ac As]
+16.3 +9.2 63 +18  1022.6  0.6  756  286           
09 21.09.15 170 (Ю) 20000 м    9/0 средняя, верхняя 
[Ac As|Ci fib]
+19.4 +9.2 52 +21  1022.6  0.1  756  283           
12 21.09.15 140 (ЮВ) 20000 м    8/0 верхняя 
[Ci]
+20.3 +8 45 +20  1021.7  -0.8  756  282           
15 21.09.15 100 (В) 20000 м    8/0 верхняя 
[Ci]
+17.7 +8.1 53 +19  1021.4  -0.4  755  285    +20.4       
18 21.09.15 110 (В) 10 км    6/0 верхняя 
[Ci sp]
+15.6 +7.5 59 +17  1021.4  -0.2  755  287           
21 21.09.15 100 (В) 10 км    3/0 средняя 
[Ac trans]
+13.9 +7.7 66 +14  1021.9  0.4  756  288           
00 22.09.15 100 (В) 10 км    6/0 средняя 
[Ac lent]
+13.2 +8.1 71 +14  1021.9  756  289           
03 22.09.15 110 (В) 10 км    8/0 средняя 
[Ac lent]
+13.5 +8.3 71 +15  1021.7  -0.2  756  289  +12.9        сухая 
06 22.09.15 140 (ЮВ) 20000 м    9/0 верхняя 
[Cs]
+17.7 +9.1 57 +19  1021.5  756  284           
09 22.09.15 140 (ЮВ) 20000 м    10/0 верхняя 
[Cs]
+21.4 +8.2 43 +21  1021.3  0.1  755  281           
12 22.09.15 170 (Ю) 20000 м    9/0 верхняя 
[Cs]
+24.2 +8 36 +24  1020.5  -0.6  755  278           
15 22.09.15 090 (В) 10 км    4/0 верхняя 
[Ci fib]
+20.3 +9.7 51 +21  1020.6  0.1  755  281    +24.4       
18 22.09.15 110 (В) 10 км    4/0 верхняя 
[Ci fib]
+18.9 +9.6 55 +21  1020.9  0.2  755  283           
21 22.09.15 110 (В) 10 км    ясно 
+17.1 +9.8 62 +20  1021.2  0.3  755  285           
00 23.09.15 140 (ЮВ) 10 км    3/0 верхняя 
[Ci fib]
+16.6 +9.3 62 +18  1021.5  0.2  755  285           
03 23.09.15 130 (ЮВ) 10 км    6/0 средняя, верхняя 
[Ac lent|Ci fib]
+15 +9.5 70 +16  1021.9  0.3  756  287  +15        сухая 
06 23.09.15 150 (ЮВ) 20000 м    ясно 
+20.3 +10.7 54 +22  1022.3  0.7  756  282  +15         
09 23.09.15 200 (Ю) 20000 м    6/0 верхняя 
[Ci]
+25.3 +10.1 38 +26  1022.6  0.6  757  277           
12 23.09.15 180 (Ю) 20000 м    6/0 верхняя 
[Ci fib]
+27.4 +9.5 33 +28  1022.5  0.1  757  275           
15 23.09.15 120 (ЮВ) 10 км    8/0 средняя, верхняя 
[Ac lent|Ci fib]
+21.2 +11.2 53 +24  1022.6  -0.2  756  281    +27.4       
18 23.09.15 140 (ЮВ) 10 км    8/0 верхняя 
[Ci fib]
+19.2 +10.3 56 +22  1023.1  0.4  757  283           
21 23.09.15 130 (ЮВ) 10 км    10/0 средняя 
[Ac trans]
+16.2 +10.5 69 +20  1023.7  0.5  757  286           
00 24.09.15 тихо ()   10 км    8/0 средняя 
[Ac trans]
+15.7 +10.1 69 +17  1024.1  0.3  757  287           
03 24.09.15 330 (СЗ) 10 км    4/0 средняя 
[Ac trans]
+14.1 +10.7 80 +17  1024.8  0.7  758  288  +13.3        сухая 
06 24.09.15 300 (СЗ) 20000 м    8/0 средняя 
[Ac cast]
+17.3 +12.2 72 +23  1025.2  0.5  758  285           
09 24.09.15 310 (СЗ) 20000 м    ясно 
+24.6 +10.9 42 +27  1024.9  0.1  758  278           
12 24.09.15 290 (З) 20000 м    6/0 верхняя 
[Ci fib]
+25.8 +10.7 39 +28  1024.8  0.1  758  277           
15 24.09.15 тихо ()   10 км    4/0 средняя 
[Ac lent]
+19.9 +13 64 +25  1025  758  282    +26.1       
18 24.09.15 тихо ()   10 км    ясно 
+17.7 +13.2 75 +23  1025.6  0.4  759  284           
21 24.09.15 тихо ()   10 км    4/0 верхняя 
[Ci fib]
+14.7 +12.2 85 +19  1025.8  0.1  759  288           
00 25.09.15 тихо ()   4000 м  дымка  5/0 
+14.5 +12.4 87 +19  1025.8  759  288           
03 25.09.15 тихо ()   10 км    9/0 средняя, верхняя 
[Ac cast|Ci fib]
+12.8 +11.7 93 +16  1026.1  0.2  759  290  +12.8        сухая 
06 25.09.15 тихо ()   20000 м    3/0 средняя, верхняя 
[Ac trans|Ci fib]
+20.1 +12.9 63 +25  1026  0.3  759  282  +12.8         
09 25.09.15 330 (СЗ) 20000 м    3/0 средняя, верхняя 
[Ac trans|Ci fib]
+23 +12.9 53 +28  1025.5  -0.4  759  279           
12 25.09.15 240 (ЮЗ) 20000 м    4/4 1000 м 
[Cu hum]
+24.5 +13.2 49 +30  1024.6  -0.8  758  278           
15 25.09.15 140 (ЮВ) 10 км    4/0 верхняя 
[Cs]
+20 +13.7 67 +26  1024.7  0.1  758  282    +25       
18 25.09.15 120 (ЮВ) 10 км    ясно 
+17.8 +11.4 66 +22  1024.5  -0.3  758  285           
21 25.09.15 120 (ЮВ) 10 км    ясно 
+16.5 +9.7 64 +19  1024.6  758  286           
00 26.09.15 130 (ЮВ) 10 км    ясно 
+14.9 +10.3 74 +17  1024.6  0.1  758  288           
03 26.09.15 тихо ()   10 км    4/0 верхняя 
[Ci fib]
+12.5 +10.3 86 +14  1024.6  0.1  758  290  +12.5        сухая 
06 26.09.15 310 (СЗ) 20000 м    10/0 средняя, верхняя 
[Ac trans|Ci fib]
+19.3 +12.4 64 +25  1024.7  0.4  758  283  +12.4         
09 26.09.15 270 (З) 20000 м    8/0 верхняя 
[Ci fib]
+23.9 +10.9 44 +26  1024.4  0.1  758  279           
12 26.09.15 290 (З) 20000 м    9/0 верхняя 
[Cs]
+25.8 +8.8 34 +26  1023.8  -0.6  758  277           
15 26.09.15 тихо ()   10 км    5/0 верхняя 
[Ci fib]
+19.4 +11.8 61 +23  1024.3  0.2  758  283    +26.2       
18 26.09.15 тихо ()   10 км    ясно 
+16.7 +11.4 71 +20  1024.7  0.3  758  286           
21 26.09.15 100 (В) 10 км    ясно 
+16.5 +10.1 66 +19  1024.8  0.1  758  286           
00 27.09.15 110 (В) 10 км    ясно 
+15.7 +10.1 69 +18  1024.9  758  287           
03 27.09.15 140 (ЮВ) 10 км    4/4 1000 м 
[Cu hum]
+16.1 +11.7 75 +20  1025.3  0.5  758  286  +15.2        сухая 
06 27.09.15 130 (ЮВ) 10 км  слаб. ливневой дождь  8/4 1000 м кучево-дожд., средняя 
[Cb cap|Ac lent]
+19.8 +12.3 62 +25  1025.1  758  283           
09 27.09.15 220 (ЮЗ) 20000 м    3/0 верхняя 
[Ci fib]
+27.3 +9.2 32 +27  1024.4  -0.4  758  276           
12 27.09.15 240 (ЮЗ) 20000 м    ясно 
+27.7 +8 29 +28  1023.6  -0.7  757  276           
15 27.09.15 160 (Ю) 10 км    1/0 средняя 
[Ac lent]
+23.1 +8.3 39 +23  1023.7  0.1  757  280    +28.2       
18 27.09.15 110 (В) 10 км    4/0 средняя 
[Ac trans]
+19.8 +9.3 51 +21  1024.1  0.3  758  283           
21 27.09.15 130 (ЮВ) 10 км    ясно 
+18.3 +9.4 56 +20  1023.8  -0.4  757  284           
00 28.09.15 130 (ЮВ) н/о    н/о 
+16.6 +8.6 59 +18  1024.2  0.3  758  286           
03 28.09.15 130 (ЮВ) 10 км    1/0 верхняя 
[Ci fib]
+15.7 +9.1 65 +16  1024.1  -0.2  757  287  +15.6        сухая 
06 28.09.15 170 (Ю) 20000 м    ясно 
+20.8 +10.1 50 +22  1023.9  0.1  757  282           
09 28.09.15 210 (ЮЗ) 20000 м    8/0 средняя, верхняя 
[Ac lent|Ci fib]
+26.7 +5.9 26 +27  1022.7  -1  757  277           
12 28.09.15 180 (Ю) 10 км    8/6 1000 м кучево-дожд., верхняя 
[Cb cap|Cs]
+26 +8 32 +26  1022.5  -0.1  757  277           
15 28.09.15 130 (ЮВ) 10 км  {ливн. осадки}  4/0 средняя, верхняя 
[Ac As|Cs]
+21.3 +8.3 43 +21  1022.3  -0.5  756  281    +27.4       
18 28.09.15 160 (Ю) 10 км    5/0 верхняя 
[Ci fib]
+19.7 +8.9 50 +21  1021.7  -0.6  756  283           
21 28.09.15 140 (ЮВ) 10 км    5/0 верхняя 
[Ci fib]
+17.9 +9.3 57 +19  1021.3  -0.5  755  284           
00 29.09.15 160 (Ю) 10 км    8/0 средняя 
[Ac cast]
+18.5 +8.2 51 +19  1020.8  -0.5  755  284           
03 29.09.15 160 (Ю) 20000 м    9/0 средняя, верхняя 
[Ac cast|Ci fib]
+17.6 +7.6 52 +18  1021.7  0.9  756  285  +17.3        сухая 
06 29.09.15 240 (ЮЗ) 20000 м    9/0 верхняя 
[Ci fib]
+20.4 +5.8 38 +20  1022.6  0.9  756  283           
09 29.09.15 260 (З) 20000 м    6/3 1000 м верхняя 
[Sc|Cs]
+23 +6.1 34 +23  1022.3  0.1  756  280           
12 29.09.15 270 (З) 20000 м    8/3 1000 м верхняя 
[Cu Sc|Cs]
+20.3 +10.4 53 +22  1022.9  0.5  757  282           
15 29.09.15 350 (С) 10 км    8/0 средняя 
[Ac cast]
+16.5 +9.1 62 +17  1023.9  0.8  757  286    +23.4       
18 29.09.15 350 (С) 10 км    4/0 верхняя 
[Ci]
+11.8 +7 72 +12  1025.2  758  292           
21 29.09.15 360 (С) 10 км    10/0 средняя 
[Ac cast]
+10.3 +6.2 76 +11  1025.6  0.3  758  293           
00 30.09.15 350 (С) 10 км    10/0 средняя 
[Ac As]
+9 +5.7 80 +9  1026.1  0.4  759  295           
03 30.09.15 340 (С) 10 км    10/10 840 м 
[Sc]
+8.8 +6 83 +9  1025.9  0.1  758  295  +8.8        сухая 
06 30.09.15 010 (С) 10 км  слаб. дождь  10/10 330 м 
[Frnb|Ns]
+8.4 +6.2 86 +8  1026.8  0.8  759  296  +8.4         
09 30.09.15 300 (СЗ) 4000 м  дождь  10/10 1000 м 
[Frnb|Ns]
+8.5 +6.5 87 +10  1026.8  759  296           
12 30.09.15 310 (СЗ) 10 км  {дождь}  10/10 1110 м 
[Sc]
+9.3 +5.2 76 +10  1026.4  -0.3  759  295           
15 30.09.15 310 (СЗ) 10 км    9/9 1380 м 
[Frnb]
+8.2 +3.7 73 +8  1025.9  -0.6  758  296    +9.6     
18 30.09.15 330 (СЗ) 10 км    9/0 средняя 
[Ac trans]
+7.2 +2.2 70 +8  1025.3  -0.6  758  297           
21 30.09.15 290 (З) 10 км    8/0 средняя 
[Ac trans]
+6.6 +2.3 74 +8  1024.3  -1  757  298           
00 01.10.15 тихо ()   10 км    8/0 верхняя 
[Ci fib]
+3.7 +1.7 87 +4  1023  -1.4  756  300           
03 01.10.15 250 (З) 10 км    6/0 средняя 
[Ac trans]
+4.6 +2.6 87 +5  1021.7  -1.3  755  299  +3.6        влажная 
06 01.10.15 280 (З) 20000 м    6/0 средняя 
[Ac trans]
+7.8 +3.4 74 +8  1020.5  -1  754  295           
09 01.10.15 290 (З) 10 км    10/10 1500 м 
[Sc]
+10.2 +4 65 +10  1019.4  -1  754  292           
12 01.10.15 250 (З) 10 км    10/6 800 м средняя 
[Sc|Ac lent]
+10.8 +4.4 65 +11  1018.2  -1.1  753  291           
15 01.10.15 260 (З) 10 км    10/8 800 м средняя 
[Sc|Ac As]
+10.1 +5.4 73 +11  1016.8  -1.4  752  291    +10.9       
18 01.10.15 210 (ЮЗ) 10 км  в посл. час дождь  10/10 1320 м 
[Sc]
+9.5 +5.9 78 +11  1014.5  -2.4  750  291           
21 01.10.15 240 (ЮЗ) 10 км    10/10 1170 м 
[Sc]
+10.1 +3.5 64 +10  1011.6  -2.8  748  290           
00 02.10.15 240 (ЮЗ) 10 км    10/10 1500 м 
[Sc]
+9.2 +3.4 67 +9  1008.2  -3.3  745  290           
03 02.10.15 250 (З) 10 км    10/10 1500 м 
+8.3 +4.3 76 +7  1005.2  -3.1  743  290  +8.1        влажная 
Время (UTC), дата Ветер
(°,м/с) 
Видим.   Явления Облачность Т
(°С)
Тd
(°С)
f(%) Тe
(°С)
Pmin
(гПа)
dP
(гПа)
Po
(мм)
O2
(г/м3)
Тmin Tmax R s Состояние
почвы